[[{"header":{"parameterUnit":"m.s-1","parameterCategory":1,"la1":30.2991,"la2":30.254,"lo1":-89.0895,"lo2":-89.0444,"dy":0.0017,"dx":0.0017,"nx":28,"ny":28,"refTime":"2024-07-02T03:00:00:Z","depth":0,"parameterNumber":2,"parameterNumberName":"U-component_of_WINDS"},"data":[0,0,0,0,0,0,0,0,0,0,0,0,0,0,0,0,0,0,0,0,0,0,0,0,0,0,0,0,0,0,0,0,0,0,0,0,0,0,0,0,0,0,0,0,0,0,0,0,0,0,0,0,0,0,0,0,0,0,-1.295,-1.295,0,-1.2954,-1.2954,-1.2954,-1.2961,-1.2961,-1.2961,-1.2961,-1.2964,-1.2964,-1.2964,0,0,0,0,0,0,0,0,0,0,0,0,0,-1.2947,-1.2947,-1.295,-1.295,-1.295,-1.2954,-1.2954,-1.2954,-1.2961,-1.2961,-1.2961,-1.2961,-1.2964,-1.2964,-1.2964,0,0,0,0,0,0,0,0,0,0,0,0,0,-1.2949,-1.2947,-1.295,-1.2954,-1.2954,-1.2954,-1.2954,-1.2954,-1.2961,-1.2961,-1.2961,-1.2961,-1.2964,-1.2964,-1.2964,-1.296,0,0,-1.2964,-1.2964,0,0,0,0,0,0,0,0,-1.2949,-1.2949,-1.2953,-1.2953,-1.2954,-1.2957,-1.2954,-1.2956,-1.2961,-1.2958,-1.2961,-1.2961,-1.2961,-1.2962,-1.2962,-1.296,-1.296,-1.2964,-1.2964,-1.2964,-1.2964,0,0,0,0,0,0,0,-1.2949,-1.2949,-1.2951,-1.2953,-1.2954,-1.2955,-1.2956,-1.2954,-1.2959,-1.2958,-1.2959,-1.2959,-1.2962,-1.2962,-1.2962,-1.296,-1.2964,-1.2964,-1.2964,-1.2964,-1.2955,-1.2954,0,0,0,0,0,0,-1.2948,-1.2949,-1.2951,-1.2951,-1.2952,-1.2955,-1.2956,-1.2956,-1.2959,-1.2959,-1.2959,-1.296,-1.2962,-1.2962,-1.2962,-1.2957,-1.2964,-1.2964,-1.2963,-1.2955,-1.2955,-1.2954,0,0,0,0,0,0,-1.2948,-1.2948,-1.2951,-1.295,-1.2951,-1.2955,-1.2955,-1.2956,-1.2956,-1.2959,-1.296,-1.2959,-1.2962,-1.2962,-1.296,-1.2957,-1.2963,-1.2963,-1.2955,-1.2955,-1.2954,-1.2947,0,0,0,0,0,0,-1.2948,-1.2948,-1.2947,-1.295,-1.2951,-1.2949,-1.2955,-1.2956,-1.2956,-1.2957,-1.2959,-1.296,-1.2962,-1.296,-1.296,-1.2957,-1.2963,-1.2955,-1.2955,-1.2955,-1.2948,-1.2947,-1.2946,0,0,0,0,0,-1.2948,-1.2944,-1.2947,-1.2947,-1.2949,-1.2949,-1.2949,-1.2953,-1.2956,-1.2954,-1.2956,-1.2959,-1.2958,-1.296,-1.296,-1.2957,-1.2955,-1.2955,-1.2955,-1.2948,-1.2947,-1.2946,0,0,0,0,0,0,-1.294,-1.2945,-1.2947,-1.2945,-1.2947,-1.295,-1.2948,-1.2952,-1.2952,-1.2953,-1.2957,-1.2957,-1.2955,-1.2956,-1.2958,-1.2953,-1.2957,-1.2957,-1.2952,-1.2951,-1.295,-1.295,-1.2963,0,0,0,0,0,-1.2938,-1.2938,-1.2942,-1.2939,-1.294,-1.2944,-1.2944,-1.2947,-1.2949,-1.2949,-1.2951,-1.2952,-1.2952,-1.2952,-1.2952,-1.2948,-1.2949,-1.2946,-1.2945,-1.2945,-1.2944,-1.2942,-1.2941,-1.2953,-1.2953,-1.2953,0,0,-1.2933,-1.2936,-1.2936,-1.2938,-1.2939,-1.2939,-1.2945,-1.2944,-1.2943,-1.2949,-1.2947,-1.2949,-1.2951,-1.2948,-1.2947,-1.2949,-1.2941,-1.2944,-1.2944,-1.2943,-1.2942,-1.294,-1.2939,-1.2953,-1.2953,-1.2953,0,0,-1.2925,-1.2927,-1.2925,-1.2927,-1.293,-1.2933,-1.2932,-1.2936,-1.2937,-1.2936,-1.294,-1.294,-1.2939,-1.294,-1.2941,-1.2934,-1.2936,-1.2934,-1.2928,-1.2927,-1.2926,-1.2925,-1.2922,-1.2921,-1.2933,-1.2933,-1.2933,0,-1.2919,-1.2919,-1.2924,-1.2923,-1.2924,-1.293,-1.2928,-1.2929,-1.2931,-1.2931,-1.2934,-1.2934,-1.2935,-1.2933,-1.2931,-1.2932,-1.2931,-1.2933,-1.2925,-1.2925,-1.2924,-1.2921,-1.292,-1.2933,-1.2933,-1.2933,-1.2933,0,-1.2911,-1.2911,-1.2909,-1.2912,-1.2913,-1.2911,-1.2916,-1.2916,-1.2919,-1.2921,-1.292,-1.2922,-1.2923,-1.2923,-1.2925,-1.2921,-1.2922,-1.2925,-1.2929,-1.2922,-1.292,-1.2919,-1.2932,-1.2932,-1.2932,-1.2932,0,0,-1.2896,-1.2903,-1.2902,-1.2904,-1.2907,-1.2907,-1.2906,-1.2908,-1.2907,-1.2909,-1.2908,-1.2908,-1.2911,-1.2912,-1.2914,-1.2913,-1.2907,-1.2916,-1.2916,-1.2914,-1.2902,-1.2899,-1.2898,-1.2909,-1.2909,-1.2909,-1.2901,0,-1.2888,-1.2887,-1.2892,-1.2889,-1.2889,-1.2896,-1.2895,-1.2897,-1.2899,-1.2899,-1.2902,-1.2902,-1.2906,-1.2907,-1.2906,-1.2908,-1.2905,-1.2909,-1.2908,-1.2908,-1.2906,-1.2896,-1.2893,-1.2886,-1.2901,-1.29,-1.29,0,-1.2878,-1.288,-1.2878,-1.2882,-1.2882,-1.2882,-1.2883,-1.2884,-1.2886,-1.2888,-1.2889,-1.2893,-1.2892,-1.2897,-1.2895,-1.2898,-1.2898,-1.2899,-1.2899,-1.2898,-1.2903,-1.2895,-1.2884,-1.2882,-1.2899,-1.2899,-1.2899,0,-1.2867,-1.2869,-1.2868,-1.2869,-1.2875,-1.2874,-1.2876,-1.2879,-1.288,-1.2881,-1.2881,-1.2883,-1.2883,-1.2884,-1.2888,-1.2891,-1.2886,-1.2891,-1.2887,-1.2887,-1.2885,-1.2884,-1.2873,-1.2886,-1.2886,-1.2886,-1.2886,0,-1.2857,-1.2855,-1.2863,-1.2862,-1.286,-1.2866,-1.2864,-1.2867,-1.287,-1.2869,-1.2875,-1.2874,-1.288,-1.288,-1.2883,-1.2881,-1.2881,-1.2883,-1.2883,-1.2882,-1.2881,-1.2881,-1.2881,-1.2886,-1.2886,-1.2886,-1.2886,0,-1.2843,-1.2849,-1.2848,-1.2854,-1.2855,-1.2853,-1.2858,-1.2858,-1.2861,-1.2861,-1.2861,-1.2866,-1.2866,-1.2871,-1.2872,-1.2874,-1.287,-1.2872,-1.287,-1.287,-1.2866,-1.2866,-1.2852,-1.2851,-1.2866,-1.2866,-1.2866,0,-1.2836,-1.2835,-1.2841,-1.2841,-1.2843,-1.2844,-1.2845,-1.2851,-1.2852,-1.2855,-1.2854,-1.2855,-1.2856,-1.2856,-1.286,-1.2861,-1.2863,-1.2858,-1.2863,-1.2861,-1.2862,-1.2861,-1.2861,-1.2856,-1.2856,-1.2856,-1.2856,0,-1.2822,-1.2825,-1.2827,-1.2829,-1.283,-1.2833,-1.2835,-1.2835,-1.2842,-1.2842,-1.2843,-1.2844,-1.2846,-1.2846,-1.2848,-1.285,-1.2854,-1.2855,-1.2854,-1.2852,-1.285,-1.285,-1.2866,-1.2855,-1.2855,-1.2855,-1.2855,-1.2855,-1.2811,-1.281,-1.2815,-1.2816,-1.2819,-1.2821,-1.2821,-1.2825,-1.2826,-1.2828,-1.2832,-1.2832,-1.2836,-1.2838,-1.284,-1.284,-1.2842,-1.2841,-1.2841,-1.284,-1.2839,-1.2851,-1.2841,-1.2841,-1.2841,-1.2841,-1.2841,0,-1.2797,-1.28,-1.2802,-1.2805,-1.2807,-1.2812,-1.2815,-1.2815,-1.2816,-1.2819,-1.282,-1.2821,-1.2822,-1.2826,-1.2828,-1.2827,-1.2829,-1.2827,-1.2827,-1.2827,-1.2837,-1.2838,-1.2826,-1.2826,-1.2826,-1.2826,-1.2826,-1.2826,-1.2789,-1.2789,-1.2792,-1.2793,-1.2796,-1.2797,-1.2799,-1.2801,-1.2803,-1.2805,-1.2806,-1.2809,-1.2812,-1.2814,-1.2815,-1.2817,-1.2817,-1.2814,-1.2816,-1.2825,-1.2826,-1.2828,-1.2828,-1.2814,-1.2814,-1.2805,-1.2805,-1.2805]},{"header":{"parameterUnit":"m.s-1","parameterCategory":1,"la1":30.2991,"la2":30.254,"lo1":-89.0895,"lo2":-89.0444,"dy":0.0017,"dx":0.0017,"nx":28,"ny":28,"refTime":"2024-07-02T03:00:00:Z","depth":0,"parameterNumber":3,"parameterNumberName":"V-component_of_WINDS"},"data":[0,0,0,0,0,0,0,0,0,0,0,0,0,0,0,0,0,0,0,0,0,0,0,0,0,0,0,0,0,0,0,0,0,0,0,0,0,0,0,0,0,0,0,0,0,0,0,0,0,0,0,0,0,0,0,0,0,0,2.2557,2.2557,0,2.2593,2.2594,2.2594,2.2578,2.2577,2.2576,2.2575,2.2612,2.2614,2.2616,0,0,0,0,0,0,0,0,0,0,0,0,0,2.2473,2.2475,2.2557,2.2557,2.2558,2.2593,2.2594,2.2594,2.2578,2.2577,2.2576,2.2575,2.2612,2.2614,2.2616,0,0,0,0,0,0,0,0,0,0,0,0,0,2.2509,2.2475,2.2557,2.2554,2.2554,2.2593,2.2594,2.2594,2.2578,2.2577,2.2576,2.2575,2.2611,2.2614,2.2616,2.266,0,0,2.2625,2.2626,0,0,0,0,0,0,0,0,2.2507,2.2513,2.2554,2.2554,2.2555,2.258,2.2578,2.2616,2.2579,2.2569,2.2575,2.2574,2.2603,2.2606,2.2616,2.2662,2.2663,2.2625,2.2627,2.2628,2.2628,0,0,0,0,0,0,0,2.2505,2.2511,2.2571,2.2555,2.2555,2.2551,2.2555,2.2585,2.2593,2.257,2.2569,2.2573,2.2602,2.2613,2.2616,2.2664,2.2625,2.2627,2.2629,2.263,2.2748,2.2749,0,0,0,0,0,0,2.2502,2.2509,2.257,2.2572,2.2527,2.2554,2.2558,2.2573,2.2593,2.2594,2.2575,2.2573,2.2609,2.2613,2.2618,2.267,2.2628,2.263,2.2632,2.2746,2.2748,2.275,0,0,0,0,0,0,2.2501,2.2508,2.2569,2.254,2.2548,2.2556,2.2574,2.2574,2.2585,2.2596,2.2597,2.2584,2.2608,2.2614,2.265,2.2671,2.2631,2.2634,2.2744,2.2747,2.2749,2.2776,0,0,0,0,0,0,2.2498,2.2508,2.2524,2.2541,2.2549,2.26,2.2575,2.2576,2.259,2.2588,2.2605,2.2607,2.2608,2.2646,2.2652,2.2674,2.2636,2.2742,2.2745,2.2748,2.2773,2.2779,2.2784,0,0,0,0,0,2.2495,2.253,2.2525,2.2533,2.2571,2.2602,2.2606,2.2607,2.2592,2.2609,2.2616,2.2606,2.2668,2.2649,2.2657,2.268,2.2741,2.2745,2.2748,2.2771,2.2778,2.2784,0,0,0,0,0,0,2.2516,2.2533,2.2527,2.2568,2.2584,2.2599,2.262,2.2614,2.2634,2.2631,2.263,2.2634,2.2671,2.2679,2.2658,2.2723,2.2702,2.2707,2.2717,2.2724,2.2729,2.2727,2.2638,0,0,0,0,0,2.2526,2.255,2.2562,2.2598,2.2606,2.2612,2.2625,2.2624,2.264,2.2646,2.2656,2.2671,2.2694,2.2709,2.2731,2.2774,2.2778,2.2794,2.2799,2.2803,2.2808,2.2832,2.2839,2.2761,2.2761,2.276,0,0,2.2545,2.2557,2.2572,2.2602,2.2614,2.2639,2.2617,2.2644,2.2663,2.265,2.2685,2.2692,2.271,2.275,2.2768,2.2757,2.283,2.2807,2.2811,2.2813,2.2836,2.2843,2.285,2.2763,2.2762,2.2762,0,0,2.2594,2.2605,2.2636,2.2648,2.2666,2.267,2.2677,2.2693,2.2698,2.2733,2.2724,2.2746,2.2785,2.2798,2.2809,2.2863,2.2855,2.287,2.2898,2.2921,2.2927,2.2933,2.2952,2.2959,2.2874,2.2874,2.2874,0,2.2616,2.2653,2.2653,2.2681,2.2694,2.2684,2.2715,2.2727,2.2751,2.2761,2.2748,2.2798,2.2809,2.2852,2.2865,2.2874,2.2883,2.2868,2.2926,2.2932,2.2937,2.2956,2.2963,2.2876,2.2876,2.2875,2.2875,0,2.268,2.2706,2.2729,2.2753,2.2768,2.2798,2.2802,2.2818,2.2815,2.282,2.2855,2.2868,2.2892,2.2902,2.2899,2.2945,2.2938,2.2926,2.2905,2.2946,2.2964,2.2971,2.2878,2.2878,2.2877,2.2877,0,0,2.2744,2.2766,2.2775,2.2786,2.2805,2.2825,2.2854,2.2877,2.2892,2.2908,2.2933,2.2966,2.2955,2.2969,2.2967,2.2988,2.303,2.2973,2.2974,2.2984,2.3081,2.3091,2.3099,2.3024,2.3026,2.3027,2.308,0,2.2794,2.2845,2.2845,2.2892,2.2917,2.2907,2.2932,2.2946,2.2952,2.2973,2.2978,2.3002,2.2986,2.2994,2.3014,2.3021,2.3049,2.3017,2.3048,2.3049,2.3045,2.3108,2.3118,2.3168,2.3087,2.3088,2.3089,0,2.286,2.288,2.2929,2.2945,2.2955,2.2978,2.3,2.302,2.3036,2.3038,2.3053,2.3049,2.3078,2.3056,2.3096,2.3074,2.3086,2.3092,2.3094,2.3097,2.3072,2.3114,2.3183,2.3191,2.3099,2.3099,2.3098,0,2.2903,2.2941,2.2976,2.2985,2.3004,2.3021,2.3029,2.3044,2.3058,2.3077,2.3086,2.3108,2.3121,2.3138,2.3139,2.3123,2.3181,2.3158,2.3184,2.3184,2.3197,2.3197,2.3271,2.3204,2.3204,2.3204,2.3203,0,2.296,2.2991,2.2995,2.3017,2.3051,2.305,2.3084,2.3091,2.3105,2.3127,2.312,2.3141,2.3142,2.3164,2.3165,2.3199,2.3204,2.3207,2.3207,2.3209,2.3208,2.3217,2.3214,2.3206,2.3205,2.3205,2.3204,0,2.3013,2.3017,2.3055,2.307,2.3074,2.3099,2.3112,2.3132,2.3136,2.3165,2.3172,2.3179,2.3204,2.3207,2.3237,2.3238,2.3279,2.3275,2.3274,2.3274,2.33,2.3298,2.3383,2.3394,2.3319,2.332,2.3321,0,2.305,2.3074,2.3091,2.3106,2.3116,2.3139,2.3154,2.3154,2.317,2.319,2.3208,2.3233,2.3253,2.3294,2.3301,2.3324,2.3321,2.3349,2.3324,2.3325,2.3323,2.3322,2.3324,2.3354,2.3355,2.3356,2.3356,0,2.3115,2.3116,2.3137,2.316,2.3178,2.3195,2.3212,2.3224,2.3226,2.3244,2.327,2.3285,2.3316,2.3341,2.3363,2.3371,2.3365,2.3364,2.3371,2.3373,2.3372,2.3374,2.3288,2.3362,2.3362,2.3361,2.3361,2.3361,2.3162,2.3183,2.3199,2.3223,2.3235,2.3251,2.3271,2.3278,2.33,2.3324,2.3323,2.3352,2.3367,2.3396,2.3407,2.3429,2.342,2.3431,2.3433,2.3436,2.344,2.3368,2.3433,2.3433,2.3433,2.3433,2.3433,0,2.3228,2.3237,2.3259,2.3283,2.3302,2.3293,2.3311,2.3328,2.3353,2.3368,2.3388,2.3418,2.3442,2.3452,2.3475,2.3491,2.3489,2.3498,2.3497,2.3499,2.3446,2.3438,2.3499,2.3499,2.3499,2.3499,2.3499,2.3499,2.3264,2.3299,2.3302,2.3342,2.3352,2.338,2.3391,2.3405,2.3418,2.3452,2.3472,2.3477,2.349,2.3515,2.3536,2.3538,2.3548,2.3558,2.3559,2.351,2.3503,2.3497,2.3489,2.356,2.356,2.3611,2.3611,2.3612]}]]